This is the latest recevied weather packets stored in our database for station/object IK2ILW-6. If no packets are shown the sender has not sent any weather packets the latest 10 day(s).
| Time | Temp. | Humidity | Pressure | Rain* | Wind** | Luminosity | Snow |
|---|---|---|---|---|---|---|---|
| 1778238390 | 5° C | 93% | 1017.7 hPa | 3.05 mm | - | 223 W/m² | - |
| 1778238093 | 5.56° C | 93% | 1017.7 hPa | 4.06 mm | - | 211 W/m² | - |
| 1778237790 | 5.56° C | 92% | 1017.7 hPa | 5.08 mm | - | 364 W/m² | - |
| 1778237497 | 5° C | 94% | 1017.6 hPa | 6.1 mm | - | 360 W/m² | - |
| 1778237202 | 4.44° C | 92% | 1017.6 hPa | 7.11 mm | - | 345 W/m² | - |
| 1778236887 | 4.44° C | 93% | 1017.7 hPa | 7.11 mm | - | 295 W/m² | - |
| 1778236591 | 3.89° C | 95% | 1017.6 hPa | 6.1 mm | - | 260 W/m² | - |
| 1778236295 | 3.89° C | 95% | 1017.6 hPa | 6.1 mm | - | 190 W/m² | - |
| 1778236000 | 3.89° C | 95% | 1017.6 hPa | 6.1 mm | - | 172 W/m² | - |
| 1778235683 | 3.33° C | 95% | 1017.6 hPa | 5.08 mm | - | 185 W/m² | - |
| 1778235389 | 3.33° C | 95% | 1017.6 hPa | 5.08 mm | - | 169 W/m² | - |
| 1778235093 | 3.33° C | 95% | 1017.6 hPa | 5.08 mm | - | 174 W/m² | - |
| 1778234798 | 3.33° C | 94% | 1017.6 hPa | 4.06 mm | - | 171 W/m² | - |
| 1778234487 | 3.33° C | 94% | 1017.6 hPa | 3.05 mm | - | 109 W/m² | - |
| 1778234191 | 3.89° C | 94% | 1017.6 hPa | 2.03 mm | - | 91 W/m² | - |
| 1778233895 | 4.44° C | 95% | 1017.6 hPa | 1.02 mm | - | 54 W/m² | - |
| 1778233598 | 4.44° C | 95% | 1017.5 hPa | 0 mm | - | 26 W/m² | - |
| 1778233302 | 4.44° C | 95% | 1017.4 hPa | 0 mm | - | 30 W/m² | - |
| 1778232986 | 4.44° C | 95% | 1017.4 hPa | 0 mm | - | 39 W/m² | - |
| 1778232690 | 4.44° C | 94% | 1017.4 hPa | 0 mm | - | 58 W/m² | - |
| 1778232395 | 4.44° C | 93% | 1017.4 hPa | 0 mm | - | 100 W/m² | - |
| 1778232100 | 4.44° C | 93% | 1017.4 hPa | 0 mm | - | 132 W/m² | - |
| 1778231784 | 4.44° C | 93% | 1017.4 hPa | 0 mm | - | 171 W/m² | - |
| 1778231489 | 4.44° C | 93% | 1017.4 hPa | 0 mm | - | 139 W/m² | - |
| 1778231198 | 4.44° C | 92% | 1017.3 hPa | 0 mm | - | 121 W/m² | - |
* Rain latest hour (hover to see other rain measurements)
** Current wind speed in m/s (hover to see current wind gust speed)